Time,TemperatureF,DewpointF,PressureIn,WindDirection,WindDirectionDegrees,WindSpeedMPH,WindSpeedGustMPH,Humidity,HourlyPrecipIn,Conditions,Clouds,dailyrainin,SolarRadiationWatts/m^2,SoftwareType,DateUTC
2013-12-05 00:02:00,15.0,12.0,-100.00,NNE,17,7.0,14.0,87,0.00,,,0.20,0.000000,,2013-12-05 06:02:00,
2013-12-05 00:43:00,15.0,12.0,-100.00,North,7,7.0,16.0,87,0.00,,,0.20,0.000000,,2013-12-05 06:43:00,
2013-12-05 00:52:00,15.0,12.0,-100.00,North,7,7.0,16.0,87,0.00,,,0.20,0.000000,,2013-12-05 06:52:00,
2013-12-05 01:02:00,15.0,12.0,-100.00,North,7,7.0,16.0,87,0.00,,,0.20,0.000000,,2013-12-05 07:02:00,
2013-12-05 01:42:00,15.0,12.0,-100.00,North,358,5.0,10.0,87,0.01,,,0.21,0.000000,,2013-12-05 07:42:00,
2013-12-05 01:52:00,15.0,12.0,-100.00,North,358,5.0,10.0,87,0.01,,,0.21,0.000000,,2013-12-05 07:52:00,
2013-12-05 02:02:00,15.0,12.0,-100.00,North,358,5.0,10.0,87,0.01,,,0.21,0.000000,,2013-12-05 08:02:00,
2013-12-05 02:42:00,15.0,12.0,-100.00,WNW,287,6.0,9.0,88,0.00,,,0.21,0.000000,,2013-12-05 08:42:00,
2013-12-05 02:53:00,15.0,12.0,-100.00,WNW,287,6.0,9.0,88,0.00,,,0.21,0.000000,,2013-12-05 08:53:00,
2013-12-05 03:02:00,15.0,12.0,-100.00,WNW,287,6.0,9.0,88,0.00,,,0.21,0.000000,,2013-12-05 09:02:00,
2013-12-05 03:43:00,15.0,12.0,-100.00,WNW,298,8.0,12.0,88,0.00,,,0.21,0.000000,,2013-12-05 09:43:00,
2013-12-05 03:54:00,15.0,12.0,-100.00,WNW,298,8.0,12.0,88,0.00,,,0.21,0.000000,,2013-12-05 09:54:00,
2013-12-05 04:03:00,15.0,12.0,-100.00,WNW,298,8.0,12.0,88,0.00,,,0.21,0.000000,,2013-12-05 10:03:00,
2013-12-05 04:43:00,13.0,9.0,-100.00,WNW,286,9.0,16.0,85,0.00,,,0.21,0.000000,,2013-12-05 10:43:00,
2013-12-05 04:53:00,13.0,9.0,-100.00,WNW,286,9.0,16.0,85,0.00,,,0.21,0.000000,,2013-12-05 10:53:00,
2013-12-05 05:02:00,13.0,9.0,-100.00,WNW,286,9.0,16.0,85,0.00,,,0.21,0.000000,,2013-12-05 11:02:00,
2013-12-05 05:22:00,11.0,7.0,-100.00,West,268,10.0,16.0,84,0.00,,,0.21,0.000000,,2013-12-05 11:22:00,
2013-12-05 05:33:00,11.0,7.0,-100.00,West,268,10.0,16.0,84,0.00,,,0.21,0.000000,,2013-12-05 11:33:00,
2013-12-05 05:42:00,11.0,7.0,-100.00,West,268,10.0,16.0,84,0.00,,,0.21,0.000000,,2013-12-05 11:42:00,
2013-12-05 05:53:00,11.0,7.0,-100.00,West,268,10.0,16.0,84,0.00,,,0.21,0.000000,,2013-12-05 11:53:00,
2013-12-05 06:02:00,11.0,7.0,-100.00,West,268,10.0,16.0,84,0.00,,,0.21,0.000000,,2013-12-05 12:02:00,
2013-12-05 06:42:00,10.0,6.0,-100.00,West,267,12.0,20.0,83,0.00,,,0.21,0.000000,,2013-12-05 12:42:00,
2013-12-05 06:52:00,10.0,6.0,-100.00,West,267,12.0,20.0,83,0.00,,,0.21,0.000000,,2013-12-05 12:52:00,
2013-12-05 07:02:00,10.0,6.0,-100.00,West,267,12.0,20.0,83,0.00,,,0.21,0.000000,,2013-12-05 13:02:00,
2013-12-05 07:42:00,9.0,5.0,-100.00,West,272,12.0,20.0,83,0.00,,,0.21,0.000000,,2013-12-05 13:42:00,
2013-12-05 07:52:00,9.0,5.0,-100.00,West,272,12.0,20.0,83,0.00,,,0.21,0.000000,,2013-12-05 13:52:00,
2013-12-05 08:02:00,9.0,5.0,-100.00,West,272,12.0,20.0,83,0.00,,,0.21,0.000000,,2013-12-05 14:02:00,
2013-12-05 08:42:00,8.0,3.0,-100.00,West,272,11.0,22.0,81,0.00,,,0.19,5.000000,,2013-12-05 14:42:00,
2013-12-05 08:52:00,8.0,3.0,-100.00,West,272,11.0,22.0,81,0.00,,,0.19,5.000000,,2013-12-05 14:52:00,
2013-12-05 09:02:00,8.0,3.0,-100.00,West,272,11.0,22.0,81,0.00,,,0.19,5.000000,,2013-12-05 15:02:00,
2013-12-05 09:04:00,9.0,4.0,-100.00,West,266,10.0,19.0,80,0.00,,,0.17,58.000000,,2013-12-05 15:04:00,
2013-12-05 09:43:00,9.0,4.0,-100.00,West,266,10.0,19.0,80,0.00,,,0.17,58.000000,,2013-12-05 15:43:00,
2013-12-05 09:54:00,9.0,4.0,-100.00,West,266,10.0,19.0,80,0.00,,,0.17,58.000000,,2013-12-05 15:54:00,
2013-12-05 10:43:00,10.0,4.0,-100.00,West,275,17.0,25.0,77,0.00,,,0.16,137.000000,,2013-12-05 16:43:00,
2013-12-05 10:53:00,10.0,4.0,-100.00,West,275,17.0,25.0,77,0.00,,,0.16,137.000000,,2013-12-05 16:53:00,
2013-12-05 11:02:00,10.0,4.0,-100.00,West,275,17.0,25.0,77,0.00,,,0.16,137.000000,,2013-12-05 17:02:00,
2013-12-05 11:23:00,10.0,4.0,-100.00,West,264,14.0,30.0,75,0.00,,,0.15,201.000000,,2013-12-05 17:23:00,
2013-12-05 11:33:00,10.0,4.0,-100.00,West,264,14.0,30.0,75,0.00,,,0.15,201.000000,,2013-12-05 17:33:00,
2013-12-05 11:42:00,10.0,4.0,-100.00,West,264,14.0,30.0,75,0.00,,,0.15,201.000000,,2013-12-05 17:42:00,
2013-12-05 11:52:00,10.0,4.0,-100.00,West,264,14.0,30.0,75,0.00,,,0.15,201.000000,,2013-12-05 17:52:00,
2013-12-05 12:02:00,10.0,4.0,-100.00,West,264,14.0,30.0,75,0.00,,,0.15,201.000000,,2013-12-05 18:02:00,
2013-12-05 12:42:00,11.0,4.0,-100.00,West,264,15.0,24.0,73,0.00,,,0.14,254.000000,,2013-12-05 18:42:00,
2013-12-05 12:52:00,11.0,4.0,-100.00,West,264,15.0,24.0,73,0.00,,,0.14,254.000000,,2013-12-05 18:52:00,
2013-12-05 13:02:00,11.0,4.0,-100.00,West,264,15.0,24.0,73,0.00,,,0.14,254.000000,,2013-12-05 19:02:00,
2013-12-05 13:22:00,10.0,3.0,-100.00,West,266,15.0,26.0,74,0.00,,,0.12,243.000000,,2013-12-05 19:22:00,
2013-12-05 13:32:00,10.0,3.0,-100.00,West,266,15.0,26.0,74,0.00,,,0.12,243.000000,,2013-12-05 19:32:00,
2013-12-05 13:42:00,10.0,3.0,-100.00,West,266,15.0,26.0,74,0.00,,,0.12,243.000000,,2013-12-05 19:42:00,
2013-12-05 13:52:00,10.0,3.0,-100.00,West,266,15.0,26.0,74,0.00,,,0.12,243.000000,,2013-12-05 19:52:00,
2013-12-05 14:02:00,10.0,3.0,-100.00,West,266,15.0,26.0,74,0.00,,,0.12,243.000000,,2013-12-05 20:02:00,
2013-12-05 14:22:00,10.0,3.0,-100.00,West,273,17.0,27.0,74,0.00,,,0.11,189.000000,,2013-12-05 20:22:00,
2013-12-05 14:32:00,10.0,3.0,-100.00,West,273,17.0,27.0,74,0.00,,,0.11,189.000000,,2013-12-05 20:32:00,
2013-12-05 14:42:00,10.0,3.0,-100.00,West,273,17.0,27.0,74,0.00,,,0.11,189.000000,,2013-12-05 20:42:00,
2013-12-05 14:52:00,10.0,3.0,-100.00,West,273,17.0,27.0,74,0.00,,,0.11,189.000000,,2013-12-05 20:52:00,
2013-12-05 15:02:00,10.0,3.0,-100.00,West,273,17.0,27.0,74,0.00,,,0.11,189.000000,,2013-12-05 21:02:00,
2013-12-05 15:44:00,8.0,2.0,-100.00,West,268,14.0,26.0,75,0.00,,,0.11,104.000000,,2013-12-05 21:44:00,
2013-12-05 15:53:00,8.0,2.0,-100.00,West,268,14.0,26.0,75,0.00,,,0.11,104.000000,,2013-12-05 21:53:00,
2013-12-05 16:03:00,8.0,2.0,-100.00,West,268,14.0,26.0,75,0.00,,,0.11,104.000000,,2013-12-05 22:03:00,
2013-12-05 16:24:00,7.0,1.0,-100.00,West,261,13.0,24.0,76,0.00,,,0.09,40.000000,,2013-12-05 22:24:00,
2013-12-05 16:34:00,7.0,1.0,-100.00,West,261,13.0,24.0,76,0.00,,,0.09,40.000000,,2013-12-05 22:34:00,
2013-12-05 16:42:00,7.0,1.0,-100.00,West,261,13.0,24.0,76,0.00,,,0.09,40.000000,,2013-12-05 22:42:00,
2013-12-05 16:52:00,7.0,1.0,-100.00,West,261,13.0,24.0,76,0.00,,,0.09,40.000000,,2013-12-05 22:52:00,
2013-12-05 17:02:00,7.0,1.0,-100.00,West,261,13.0,24.0,76,0.00,,,0.09,40.000000,,2013-12-05 23:02:00,
2013-12-05 17:43:00,5.0,-1.0,-100.00,West,269,14.0,27.0,74,0.00,,,0.08,3.000000,,2013-12-05 23:43:00,
2013-12-05 17:53:00,5.0,-1.0,-100.00,West,269,14.0,27.0,74,0.00,,,0.08,3.000000,,2013-12-05 23:53:00,
2013-12-05 18:02:00,5.0,-1.0,-100.00,West,269,14.0,27.0,74,0.00,,,0.08,3.000000,,2013-12-06 00:02:00,
2013-12-05 18:22:00,3.0,-3.0,-100.00,West,268,14.0,22.0,75,0.00,,,0.08,0.000000,,2013-12-06 00:22:00,
2013-12-05 18:32:00,3.0,-3.0,-100.00,West,268,14.0,22.0,75,0.00,,,0.08,0.000000,,2013-12-06 00:32:00,
2013-12-05 18:42:00,3.0,-3.0,-100.00,West,268,14.0,22.0,75,0.00,,,0.08,0.000000,,2013-12-06 00:42:00,
2013-12-05 18:52:00,3.0,-3.0,-100.00,West,268,14.0,22.0,75,0.00,,,0.08,0.000000,,2013-12-06 00:52:00,
2013-12-05 19:01:00,3.0,-3.0,-100.00,West,268,14.0,22.0,75,0.00,,,0.08,0.000000,,2013-12-06 01:01:00,
2013-12-05 19:42:00,2.0,-4.0,-100.00,West,266,12.0,22.0,76,0.00,,,0.06,0.000000,,2013-12-06 01:42:00,
2013-12-05 19:52:00,2.0,-4.0,-100.00,West,266,12.0,22.0,76,0.00,,,0.06,0.000000,,2013-12-06 01:52:00,
2013-12-05 20:01:00,2.0,-4.0,-100.00,West,266,12.0,22.0,76,0.00,,,0.06,0.000000,,2013-12-06 02:01:00,
2013-12-05 20:42:00,2.0,-4.0,-100.00,West,262,11.0,22.0,76,0.00,,,0.03,0.000000,,2013-12-06 02:42:00,
2013-12-05 20:52:00,2.0,-4.0,-100.00,West,262,11.0,22.0,76,0.00,,,0.03,0.000000,,2013-12-06 02:52:00,
2013-12-05 21:02:00,2.0,-4.0,-100.00,West,262,11.0,22.0,76,0.00,,,0.03,0.000000,,2013-12-06 03:02:00,
2013-12-05 21:22:00,2.0,-4.0,-100.00,West,269,11.0,21.0,76,0.00,,,0.02,0.000000,,2013-12-06 03:22:00,
2013-12-05 21:34:00,2.0,-4.0,-100.00,West,269,11.0,21.0,76,0.00,,,0.02,0.000000,,2013-12-06 03:34:00,
2013-12-05 21:44:00,2.0,-4.0,-100.00,West,269,11.0,21.0,76,0.00,,,0.02,0.000000,,2013-12-06 03:44:00,
2013-12-05 21:53:00,2.0,-4.0,-100.00,West,269,11.0,21.0,76,0.00,,,0.02,0.000000,,2013-12-06 03:53:00,
2013-12-05 22:03:00,2.0,-4.0,-100.00,West,269,11.0,21.0,76,0.00,,,0.02,0.000000,,2013-12-06 04:03:00,
2013-12-05 22:43:00,2.0,-4.0,-100.00,West,270,11.0,20.0,75,0.00,,,0.01,0.000000,,2013-12-06 04:43:00,
2013-12-05 22:53:00,2.0,-4.0,-100.00,West,270,11.0,20.0,75,0.00,,,0.01,0.000000,,2013-12-06 04:53:00,
2013-12-05 23:02:00,2.0,-4.0,-100.00,West,270,11.0,20.0,75,0.00,,,0.01,0.000000,,2013-12-06 05:02:00,
2013-12-05 23:43:00,0.0,-6.0,-100.00,West,271,10.0,19.0,75,0.00,,,0.01,0.000000,,2013-12-06 05:43:00,
2013-12-05 23:53:00,0.0,-6.0,-100.00,West,271,10.0,19.0,75,0.00,,,0.01,0.000000,,2013-12-06 05:53:00,